Location: *
(46.1200°N, 11.2700°E)
Time: 02:47:23
(UTC+00:00)

Okean-O - Pass Details

Date: 02 March 2021
Orbit: 639 x 640 km, 98.2° (Epoch: 20 April)

Event Time Altitude Azimuth Distance (km) Brightness Sun altitude
Rises 17:57:42 0° 166° (SSE) 2,932 5.9 -10.3°
Reaches altitude 10° 17:59:53 10° 167° (SSE) 2,028 5.1 -10.7°
Maximum altitude 18:04:19 85° 257° (WSW) 650 2.7 -11.4°
Drops below altitude 10° 18:08:47 10° 345° (NNW) 2,044 5.4 -12.2°
Sets 18:11:00 0° 346° (NNW) 2,958 6.3 -12.6°
